Simultaneous Nadir Overpasses (SNOs) Predictions

Prediction of SNOs between NOAA-20 and AQUA Satellite Orbit:

Table of predicted SNOs for the next 14.0 days since TLE Epoch: 12/25/2021
Index Date (NOAA-20) Time (NOAA-20) Lat,Lon (NOAA-20) SZA (NOAA-20 ) Date (AQUA) Time (AQUA) Lat,Lon (AQUA) SZA (AQUA ) Distance(km) Time Diff (sec)
1 12/25/2021 14:32:51 -64.95, 2.05 48.91 12/25/2021 14:34:04 -64.78, 3.29 49.32 61.89 73
2 12/25/2021 15:19:45 76.73,-168.36 119.15 12/25/2021 15:19:46 76.73,-168.32 119.14 1.03 1
3 12/25/2021 16:09:06 -79.93, 18.31 65.35 12/25/2021 16:07:52 -80.11, 17.67 65.20 23.80 74
4 12/28/2021 06:46:07 -76.06, 137.68 60.11 12/28/2021 06:47:04 -76.07, 137.71 60.17 0.83 57
5 12/28/2021 07:36:27 77.14, -50.90 118.61 12/28/2021 07:36:07 77.13, -50.96 118.65 1.81 20
6 12/30/2021 23:02:56 -76.22,-106.00 60.38 12/30/2021 23:03:31 -76.22,-105.91 60.43 2.55 35
7 12/30/2021 23:53:16 77.28, 65.50 118.34 12/30/2021 23:52:34 77.28, 65.49 118.38 0.40 42
8 01/02/2022 15:19:41 -76.54, 10.98 60.91 01/02/2022 15:19:54 -76.55, 11.07 60.95 2.47 13
9 01/02/2022 16:10:03 77.50,-177.71 117.91 01/02/2022 16:08:59 77.50,-177.74 117.97 0.76 64
10 01/05/2022 06:45:57 76.11, -42.12 119.41 01/05/2022 06:47:05 76.10, -42.17 119.36 1.61 68
11 01/05/2022 07:36:25 -76.91, 128.18 61.56 01/05/2022 07:36:16 -76.91, 128.20 61.55 0.57 9
12 01/07/2022 23:02:45 76.25, 74.16 118.98 01/07/2022 23:03:30 76.25, 74.20 118.94 0.90 45



Historial Predications of SNOs between NOAA-20 and AQUA
